National Weather Service Hourly Weather Roundup
NOAA NWS Hourly Roundups by Site
NOAA NWS Hourly Roundups by Site
Regional Weather Roundup for Sacramento, CA

To Select Another Site Choose from List

Select Site:  

000
ASUS46 KSTO 210115
RWRCA

NORTHERN AND CENTRAL CA REGIONAL WEATHER ROUNDUP
NATIONAL WEATHER SERVICE SACRAMENTO CA
500 PM PST THU JAN 20 2022

NOTE: FAIR INDICATES FEW OR NO CLOUDS BELOW 12,000 FEET WITH NO
SIGNIFICANT WEATHER AND/OR OBSTRUCTIONS TO VISIBILITY.

CAZ001-003-210200-
NORTHWEST AREA

CITY           SKY/WX    TMP DP  RH WIND       PRES   REMARKS
CRESCENT CITY  FOG       50  50 100 N15G26    30.42R VSB 1/2
UKIAH          CLEAR     60  46  59 W3        30.24S
$$

CAZ006-505>513-210200-
BAY AREA

CITY           SKY/WX    TMP DP  RH WIND       PRES   REMARKS
SANTA ROSA     CLEAR     62  51  67 SE5       30.25F
SAN RAFAEL     N/A       62  MM  MM MISG
NAPA           CLEAR     60  49  66 E5        30.26S
CONCORD        CLEAR     59  46  62 NW7       30.26F
OAKLAND CITY   N/A       63  MM  MM MISG
OAKLAND        PTCLDY    58  48  69 NW5       30.26F
SAN FRAN CITY  N/A       59  MM  68 MISG
SAN FRAN ARPT  PTCLDY    59  49  69 NW8       30.25F
LIVERMORE      CLEAR     59  48  67 E8        30.25S
HAYWARD        CLEAR     59  46  62 CALM      30.25F
REDWOOD CITY   N/A       59  MM  71 MISG
MOFFETT ARPT   CLEAR     59  45  58 CALM      30.25F
SAN JOSE ARPT  PTCLDY    61  48  62 NW6       30.25R
$$
CAZ034-037-514>518-210200-
CENTRAL COAST

CITY           SKY/WX    TMP DP  RH WIND       PRES   REMARKS
WATSONVILLE    CLEAR     61  49  64 W5        30.24R
SALINAS        CLEAR     62  50  64 NW13      30.23R
MONTEREY       CLEAR     57  51  80 CALM      30.25R
SAN LUIS OBISP CLEAR     62  52  69 CALM      30.20F
SANTA MARIA    CLEAR     58  51  78 W5        30.22F
HALF MOON BAY  FAIR      55  54  94 NW10      30.25S
$$
CAZ015-016-210200-
NORTHERN SACRAMENTO VALLEY

CITY           SKY/WX    TMP DP  RH WIND       PRES   REMARKS
REDDING        MOCLDY    60  47  61 SE9       30.25R
RED BLUFF      PTCLDY    60  46  59 CALM      30.27S
OROVILLE       CLEAR     60  49  66 CALM      30.28S
$$
CAZ016>018-210200-
SOUTHERN SACRAMENTO VALLEY

CITY           SKY/WX    TMP DP  RH WIND       PRES   REMARKS
AUBURN         CLEAR     57  46  67 CALM      30.28F
BEALE AFB      CLEAR     58  46  63 CALM      30.26F
LINCOLN        FAIR      57  46  67 CALM      30.26F
MARYSVILLE     CLEAR     59  48  67 E3        30.27F
SAC INTL ARPT  CLEAR     60  46  59 CALM      30.26S
MATHER AIRPORT PTCLDY    59  48  67 SE5       30.25F
DOWNTOWN SAC   N/A       61  MM  MM MISG
SAC EXEC ARPT  CLEAR     61  46  57 CALM      30.26F
VACAVILLE      CLEAR     59  48  67 E3        30.27F
TRAVIS AFB     CLEAR     61  49  64 E6        30.26F
$$
CAZ019>021-210200-
SAN JOAQUIN VALLEY

CITY           SKY/WX    TMP DP  RH WIND       PRES   REMARKS
STOCKTON       CLEAR     62  46  55 W3        30.25F
MODESTO        CLEAR     61  47  59 CALM      30.25F
MERCED         CLEAR     60  49  66 W3        30.25S
LEMOORE        PTCLDY    61  46  57 CALM      30.25F
FRESNO         CLEAR     63  47  55 CALM      30.24F HAZE
HANFORD        CLEAR     61  49  64 CALM      30.26F HAZE
PORTERVILLE    CLEAR     59  51  75 MISG      30.26F HAZE
BAKERSFIELD    CLEAR     62  49  62 W3        30.25F HAZE
$$
CAZ011-012-071-210200-
NORTHERN MOUNTAINS

CITY           SKY/WX    TMP DP  RH WIND       PRES   REMARKS
YREKA          PTCLDY    52  40  63 MISG      30.39R
MOUNT SHASTA   PTCLDY    48  37  65 VRB5      30.34S
ALTURAS        MOCLDY    45  35  68 W9        30.35R
$$
CAZ011-012-071-210200-
SIERRA NEVADA MTNS

CITY           SKY/WX    TMP DP  RH WIND       PRES   REMARKS
BLUE CANYON    CLEAR     49  36  61 CALM      30.34F
TRUCKEE        CLEAR     41  25  52 S3        30.33S
TAHOE VLY ARPT CLEAR     37  29  72 CALM      30.33S
MAMMOTH LAKES  FAIR      32  25  74 N3        30.34F
$$


 

View Past Reports for Sacramento, CA.

Products Courtesy of NOAA-NWS
NWS Information Parsing Script by Ken True at Saratoga Weather - Script by SE Lincoln Weather.

powered by Cumulus v1.9.3 (1059)
Ambient Weather VWS v14.00
Top Website Map Copyright © 2007 - 2022 Foresthillweather.com Never base important decisions on this or any weather information obtained from the Internet